Boothville, LA

4:06 PM CDT on July 27, 2017 (GMT -0500)
Boothville

Weather History for KBVE - February, 2013

Change the Weather History Date:

Tuesday, February 19, 2013

  Actual Average (KAXO) Record (KAXO)
Temperature  
Mean Temperature 58 °F -  
Max Temperature 63 °F 61 °F 73 °F (2016)
Min Temperature 54 °F 56 °F 53 °F (1998)
Degree Days  
Heating Degree Days 6    
Growing Degree Days 8 (Base 50)    
Moisture  
Dew Point 55 °F    
Average Humidity 84    
Maximum Humidity 100    
Minimum Humidity 55    
Precipitation  
Precipitation 0.48 in - - ()
Sea Level Pressure  
Sea Level Pressure 30.12 in    
Wind  
Wind Speed 10 mph (NW)    
Max Wind Speed 18 mph    
Max Gust Speed 26 mph    
Visibility 8 miles    
Events Rain    
Averages and records for this station are not official NWS values.
T = Trace of Precipitation, MM = Missing Value Source: NWS Daily Summary

Daily Weather History Graph

Daily Weather History Graph

Search for Another Location

Airport or City:

Trip Planner

Search our weather history database for the weather conditions in past years. The results will help you decide how hot, cold, wet, or windy it might be!

Date:

Astronomy

Feb. 19, 2013 Rise Set
Actual Time 6:32 AM CST 5:50 PM CST
Civil Twilight 6:08 AM CST 6:14 PM CST
Nautical Twilight 5:40 AM CST 6:42 PM CST
Astronomical Twilight 5:13 AM CST 7:09 PM CST
Moon 12:35 PM CST (2/19) 1:51 AM CST (2/19)
Length of Visible Light 12h 05m
Length of Day
11h 17m
Waxing Gibbous, 67% of the Moon is Illuminated
Feb 19
Waxing Gibbous
Feb 25
Full
Mar 4
Last Quarter
Mar 11
New
Mar 19
First Quarter

Hourly Weather History & Observations

Time (CST) Temp. Dew Point Humidity Pressure Visibility Wind Dir Wind Speed Gust Speed Precip Events Conditions
12:51 AM 63.0 °F 59.0 °F 87% 30.05 in 10.0 mi South 10.4 mph - 0.01 in Rain Light Rain
1:51 AM 63.0 °F 60.1 °F 90% 30.02 in 10.0 mi South 12.7 mph - 0.00 in   Overcast
2:51 AM 62.1 °F 61.0 °F 96% 30.04 in 3.0 mi WSW 12.7 mph - 0.03 in Rain Rain
2:56 AM 62.6 °F 60.8 °F 94% 30.04 in 1.8 mi WSW 16.1 mph 20.7 mph 0.03 in Rain Heavy Rain
3:06 AM 62.6 °F 62.6 °F 100% 30.03 in 2.0 mi SSW 15.0 mph 24.2 mph 0.11 in Rain Light Rain
3:12 AM 62.6 °F 62.6 °F 100% 30.03 in 8.0 mi SW 18.4 mph 26.5 mph 0.11 in Rain Light Rain
3:51 AM 63.0 °F 61.0 °F 93% 30.02 in 10.0 mi SSW 13.8 mph - 0.12 in   Mostly Cloudy
4:51 AM 63.0 °F 61.0 °F 93% 30.03 in 8.0 mi SW 12.7 mph - N/A   Mostly Cloudy
5:41 AM 60.8 °F 59.0 °F 94% 30.07 in 1.8 mi WNW 8.1 mph - 0.05 in Rain Heavy Rain
5:51 AM 60.1 °F 60.1 °F 100% 30.07 in 2.5 mi West 5.8 mph - 0.14 in Rain Rain
6:20 AM 60.8 °F 60.8 °F 100% 30.08 in 1.8 mi West 5.8 mph - 0.09 in Rain Rain
6:30 AM 60.8 °F 60.8 °F 100% 30.08 in 2.5 mi WSW 5.8 mph - 0.12 in Rain Light Rain
6:38 AM 60.8 °F 60.8 °F 100% 30.08 in 3.0 mi WSW 5.8 mph - 0.13 in Rain Rain
6:51 AM 60.1 °F 60.1 °F 100% 30.09 in 4.0 mi West 8.1 mph - 0.15 in Rain Light Rain
7:51 AM 60.1 °F 59.0 °F 96% 30.10 in 9.0 mi NW 6.9 mph - 0.03 in Rain Light Rain
8:51 AM 60.1 °F 57.9 °F 93% 30.13 in 10.0 mi NNW 10.4 mph - 0.00 in   Overcast
9:51 AM 62.1 °F 59.0 °F 90% 30.15 in 10.0 mi NNW 11.5 mph - N/A   Overcast
10:28 AM 60.8 °F 57.2 °F 88% 30.16 in 10.0 mi North 9.2 mph 18.4 mph N/A   Overcast
10:51 AM 60.1 °F 55.9 °F 86% 30.17 in 10.0 mi North 9.2 mph 17.3 mph N/A   Overcast
11:29 AM 62.6 °F 57.2 °F 82% 30.17 in 10.0 mi Variable 6.9 mph - N/A   Partly Cloudy
11:51 AM 63.0 °F 55.9 °F 78% 30.17 in 10.0 mi North 6.9 mph - N/A   Clear
12:51 PM 63.0 °F 55.0 °F 75% 30.16 in 10.0 mi North 5.8 mph - N/A   Partly Cloudy
1:51 PM 61.0 °F 52.0 °F 72% 30.14 in 10.0 mi North 8.1 mph - N/A   Clear
2:51 PM 63.0 °F 50.0 °F 63% 30.14 in 10.0 mi Variable 5.8 mph - N/A   Clear
3:51 PM 63.0 °F 48.0 °F 58% 30.15 in 10.0 mi Variable 5.8 mph - N/A   Clear
4:51 PM 62.1 °F 46.9 °F 58% 30.15 in 10.0 mi North 4.6 mph - N/A   Clear
6:51 PM 55.9 °F 45.0 °F 67% 30.17 in 10.0 mi North 3.5 mph - N/A   Clear
7:51 PM 55.0 °F 46.9 °F 74% 30.17 in 10.0 mi NNE 4.6 mph - N/A   Clear
8:51 PM 54.0 °F 48.9 °F 83% 30.19 in 10.0 mi North 3.5 mph - N/A   Clear
9:51 PM 55.0 °F 45.0 °F 69% 30.20 in 10.0 mi North 5.8 mph - N/A   Clear
10:51 PM 55.9 °F 39.9 °F 55% 30.22 in 10.0 mi North 8.1 mph 16.1 mph N/A   Clear
11:51 PM 55.0 °F 39.9 °F 57% 30.21 in 10.0 mi NNE 9.2 mph 17.3 mph N/A   Clear